DW3400 Weather Reports


time (UTC)temp
C
wind
direction
speed
KPH
gust
KPH
rain 1hr
cm
rain 24hr
cm
rain mn
cm
humidity
%
barometer
mb
20260507094504 12 51 4.8 14.5 0.00 0.00 0.00 68 1019.2
20260507094004 12 94 8.0 16.1 0.00 0.00 0.00 70 1019.2
20260507093004 12 114 8.0 14.5 0.00 0.00 0.00 70 1019.2
20260507091504 12 123 8.0 14.5 0.00 0.00 0.00 70 1018.9
20260507091005 12 53 4.8 12.9 0.00 0.00 0.00 70 1019.0
20260507090503 12 95 9.7 12.9 0.00 0.00 0.00 67 1018.9
20260507085504 12 83 3.2 12.9 0.00 0.00 0.00 66 1018.8
20260507085004 12 88 4.8 12.9 0.00 0.00 0.00 66 1018.8
20260507084004 12 93 4.8 14.5 0.00 0.00 0.00 68 1018.6
20260507083503 12 50 4.8 11.3 0.00 0.00 0.00 65 1018.6
20260507083004 12 51 4.8 11.3 0.00 0.00 0.00 64 1018.6
20260507082504 12 43 4.8 19.3 0.00 0.00 0.00 64 1018.6
20260507081504 11 44 8.0 16.1 0.00 0.00 0.00 65 1018.5
20260507081003 11 72 4.8 16.1 0.00 0.00 0.00 68 1018.5
20260507080004 11 36 4.8 11.3 0.00 0.00 0.00 69 1018.4
20260507074503 11 77 4.8 19.3 0.00 0.00 0.00 69 1018.4
20260507073503 11 60 4.8 12.9 0.00 0.00 0.00 70 1018.3
20260507072004 11 44 3.2 11.3 0.00 0.00 0.00 72 1018.4
20260507071004 10 66 4.8 12.9 0.00 0.00 0.00 74 1018.4
20260507064003 9 58 9.7 19.3 0.00 0.00 0.00 76 1018.1
20260507062003 8 359 4.8 12.9 0.00 0.00 0.00 79 1018.0
20260507061504 8 355 3.2 14.5 0.00 0.00 0.00 81 1018.0
20260507061004 8 39 8.0 12.9 0.00 0.00 0.00 80 1018.0
20260507060003 8 64 9.7 14.5 0.00 0.00 0.00 82 1017.9
20260507055004 8 8 3.2 9.7 0.00 0.00 0.00 83 1017.9
20260507054004 8 25 1.6 4.8 0.00 0.00 0.00 83 1017.8
20260507053504 8 300 0.0 4.8 0.00 0.00 0.00 84 1017.7
20260507053005 8 344 1.6 4.8 0.00 0.00 0.00 84 1017.7
20260507050504 6 5 0.0 3.2 0.00 0.00 0.00 90 1017.6
20260507050004 6 6 1.6 3.2 0.00 0.00 0.00 90 1017.6
20260507045504 6 314 0.0 1.6 0.00 0.00 0.00 91 1017.6
20260507044504 5 307 0.0 0.0 0.00 0.00 0.00 90 1017.5
20260507041504 4 297 0.0 1.6 0.00 0.00 0.00 90 1017.2
20260507040503 4 283 0.0 1.6 0.00 0.00 0.00 90 1017.0
20260507040004 4 283 0.0 1.6 0.00 0.00 0.00 91 1017.1
20260507035504 3 283 1.6 4.8 0.00 0.00 0.00 91 1017.0
20260507034504 3 301 1.6 3.2 0.00 0.00 0.00 91 1016.9
20260507034004 3 307 1.6 3.2 0.00 0.00 0.00 90 1016.8
20260507031004 3 318 0.0 1.6 0.00 0.00 0.00 89 1016.6
20260507025004 4 321 0.0 1.6 0.00 0.00 0.00 89 1016.4
20260507024504 4 321 0.0 3.2 0.00 0.00 0.00 89 1016.3
20260507024003 4 304 1.6 1.6 0.00 0.00 0.00 89 1016.3
20260507023004 5 314 1.6 4.8 0.00 0.00 0.00 89 1016.3
20260507022503 5 300 1.6 3.2 0.00 0.00 0.00 88 1016.3
20260507022003 5 298 1.6 3.2 0.00 0.00 0.00 88 1016.2
20260507020504 5 298 1.6 3.2 0.00 0.00 0.00 86 1016.2
20260507015504 6 348 1.6 4.8 0.00 0.00 0.00 85 1016.1
20260507014004 7 46 3.2 8.0 0.00 0.00 0.00 84 1016.1
20260507013504 7 46 1.6 4.8 0.00 0.00 0.00 84 1016.1
20260507013005 7 53 4.8 12.9 0.00 0.00 0.00 84 1016.1
20260507012004 7 65 3.2 11.3 0.00 0.00 0.00 85 1016.0
20260507011004 6 71 3.2 8.0 0.00 0.00 0.00 85 1016.0
20260507005004 7 87 4.8 9.7 0.00 0.00 0.00 85 1016.0
20260507003504 7 61 3.2 11.3 0.00 0.00 0.00 85 1015.8
20260507003004 7 68 3.2 11.3 0.00 0.00 0.00 84 1015.7
20260506234004 7 50 9.7 19.3 0.00 0.00 0.00 83 1015.6
20260506233504 7 60 6.4 19.3 0.00 0.00 0.00 83 1015.6
20260506233004 7 59 9.7 19.3 0.00 0.00 0.00 83 1015.6
20260506232504 7 60 6.4 19.3 0.00 0.00 0.00 83 1015.5
20260506232004 7 50 8.0 19.3 0.00 0.00 0.00 84 1015.6
20260506230504 7 55 8.0 19.3 0.00 0.00 0.00 84 1015.7
20260506225504 7 52 9.7 19.3 0.00 0.00 0.00 84 1015.7
20260506224504 7 52 4.8 12.9 0.00 0.00 0.00 84 1015.7
20260506222004 7 50 11.3 20.9 0.00 0.00 0.00 84 1015.5
20260506221003 7 64 9.7 19.3 0.00 0.00 0.00 84 1015.6
20260506214003 7 60 6.4 14.5 0.00 0.00 0.00 84 1015.3
20260506212003 7 63 9.7 19.3 0.00 0.00 0.00 84 1015.3
20260506211504 7 61 8.0 12.9 0.00 0.00 0.00 84 1015.3
20260506211004 7 65 6.4 12.9 0.00 0.00 0.00 84 1015.3
20260506205504 7 68 6.4 19.3 0.00 0.00 0.00 83 1015.3
20260506202504 7 89 8.0 22.5 0.00 0.00 0.00 84 1015.3
20260506200004 7 67 11.3 20.9 0.00 0.00 0.00 85 1015.0
20260506195503 7 62 11.3 20.9 0.00 0.00 0.00 85 1015.0
20260506195004 7 78 8.0 25.7 0.00 0.00 0.00 85 1014.9
20260506194504 7 64 8.0 19.3 0.00 0.00 0.00 85 1015.0
20260506194004 7 66 11.3 24.1 0.00 0.00 0.00 85 1015.0
20260506193504 7 65 11.3 27.4 0.00 0.00 0.00 85 1014.9
20260506193004 7 66 8.0 19.3 0.00 0.00 0.00 85 1015.1
20260506192004 7 78 11.3 22.5 0.00 0.00 0.00 85 1015.1
20260506191504 7 67 9.7 25.7 0.00 0.00 0.00 84 1015.1
20260506191003 7 76 9.7 22.5 0.00 0.00 0.00 84 1015.1
20260506185504 7 90 11.3 20.9 0.00 0.00 0.00 84 1014.8
20260506183504 7 77 9.7 22.5 0.00 0.00 0.00 84 1014.6
20260506183005 7 75 12.9 24.1 0.00 0.00 0.00 84 1014.5
20260506182504 7 88 11.3 24.1 0.00 0.00 0.00 84 1014.5
20260506182004 7 91 14.5 29.0 0.00 0.00 0.00 84 1014.4
20260506181003 7 76 11.3 27.4 0.00 0.00 0.00 83 1014.5
20260506180504 7 86 9.7 20.9 0.00 0.00 0.00 83 1014.4
20260506175504 7 75 14.5 25.7 0.00 0.00 0.00 82 1014.3
20260506174504 8 82 11.3 25.7 0.00 0.00 0.00 82 1014.3
20260506171003 8 68 9.7 25.7 0.00 0.00 0.00 80 1014.1
20260506165003 8 69 11.3 20.9 0.00 0.00 0.00 80 1013.8
20260506163502 9 57 12.9 27.4 0.00 0.00 0.00 78 1013.8
20260506162502 9 54 19.3 29.0 0.00 0.00 0.00 78 1013.8
20260506155003 10 56 11.3 25.7 0.00 0.00 0.00 80 1013.6
20260506154503 10 58 12.9 29.0 0.00 0.00 0.00 80 1013.6
20260506154003 10 53 12.9 29.0 0.00 0.00 0.00 79 1013.6
20260506153503 10 48 14.5 27.4 0.00 0.00 0.00 79 1013.5
20260506152503 10 56 14.5 25.7 0.00 0.00 0.00 79 1013.4
20260506151502 10 54 12.9 27.4 0.00 0.00 0.00 80 1013.5
20260506151003 10 52 14.5 24.1 0.00 0.00 0.00 79 1013.4
20260506145502 10 55 14.5 27.4 0.00 0.00 0.00 80 1013.4
20260506144503 11 49 14.5 27.4 0.00 0.00 0.00 79 1013.4
20260506143003 10 52 17.7 29.0 0.00 0.00 0.00 79 1013.2
20260506142503 11 45 12.9 22.5 0.00 0.00 0.00 79 1013.2
20260506142003 10 70 12.9 27.4 0.00 0.00 0.00 79 1013.2
20260506141002 11 64 14.5 24.1 0.00 0.00 0.00 77 1013.2
20260506135003 11 57 14.5 24.1 0.00 0.00 0.00 75 1013.1
20260506134502 11 55 17.7 29.0 0.00 0.00 0.00 72 1013.1
20260506134003 11 55 16.1 24.1 0.00 0.00 0.00 71 1013.1
20260506133503 11 71 11.3 19.3 0.00 0.00 0.00 71 1013.0
20260506133003 11 49 16.1 24.1 0.00 0.00 0.00 70 1013.0
20260506130004 12 52 12.9 20.9 0.00 0.00 0.00 67 1012.8
20260506125003 12 57 16.1 22.5 0.00 0.00 0.00 65 1012.7
20260506124502 12 49 9.7 22.5 0.00 0.00 0.00 68 1012.6
20260506124003 12 56 11.3 22.5 0.00 0.00 0.00 69 1012.7
20260506123002 12 55 11.3 32.2 0.00 0.00 0.00 69 1012.6
20260506122503 12 67 12.9 22.5 0.00 0.00 0.00 71 1012.5
20260506122002 12 43 14.5 22.5 0.00 0.00 0.00 69 1012.3
20260506121503 12 51 9.7 27.4 0.00 0.00 0.00 69 1012.4
20260506120502 12 42 8.0 19.3 0.00 0.00 0.00 70 1012.4
20260506114003 12 52 9.7 19.3 0.00 0.00 0.00 73 1012.4
20260506111003 12 57 4.8 20.9 0.00 0.00 0.00 75 1012.4
20260506110503 12 4 8.0 20.9 0.00 0.00 0.00 72 1012.4
20260506103502 12 53 14.5 20.9 0.00 0.00 0.00 71 1012.4
20260506103003 12 72 6.4 16.1 0.00 0.00 0.00 73 1012.3
20260506101503 12 32 4.8 14.5 0.00 0.00 0.00 68 1012.4
20260506100502 12 14 3.2 14.5 0.00 0.00 0.00 67 1012.3